Lid_Strength_Index
-1 -1 -1 -1 -1 -1 -1 -1 -1 -1 -1 -1 -0 -1 -1 -1 -1 1 4 1 1 -1 -1 2 2 4 4 6 7 9 13 13 13 12 12 11 11 10 9 8 7 5 6 4 4
-2 -1 -1 -1 -1 -1 -1 -1 -1 -1 -1 -1 -0 -0 -1 -1 2 4 -1 -2 -2 -1 3 5 7 5 7 7 8 9 12 12 10 10 11 10 10 10 10 10 8 7 5 5 4
-1 -1 -2 -2 -1 -1 -1 -1 -1 -1 -1 -1 -1 -0 -1 0 6 5 -2 -2 -2 -1 2 3 4 6 9 8 8 10 12 10 10 9 9 9 10 9 10 11 8 9 8 6 6
-1 -1 -1 -1 -1 -1 -1 -2 -1 -2 -1 -1 -1 -0 -1 3 15 4 -2 -2 -2 1 2 3 6 9 9 11 8 12 9 9 9 8 8 9 8 9 9 9 8 9 7 6 6
-1 -1 -1 -1 -1 -1 -2 -2 -1 -2 -2 -1 -1 -1 2 6 6 2 -2 -1 -0 2 3 5 6 8 10 10 9 11 10 8 7 7 7 7 8 9 10 8 8 7 5 5 5
-1 -1 -1 -1 -1 -1 -1 -2 -2 -1 -2 -1 -1 -1 4 11 3 1 2 0 1 3 3 4 5 5 8 9 10 9 8 8 7 8 7 9 8 9 9 9 8 6 6 5 4
-1 -1 -1 -1 -1 -1 -1 -1 -2 -1 -1 -1 -1 1 5 7 2 2 0 2 1 3 4 3 3 6 6 10 7 9 12 9 9 8 9 8 10 10 8 8 9 7 6 5 4
-1 -0 -1 -1 -1 -1 -1 -1 -1 -1 -1 -2 -1 3 8 3 2 2 2 3 2 2 3 2 2 5 8 7 8 10 10 13 10 9 8 9 13 9 7 10 10 10 7 6 5
-0 -0 -1 -1 -1 -1 -1 -1 -1 -2 -2 -2 2 5 9 1 4 3 2 3 3 2 2 2 3 7 7 11 13 12 15 14 11 8 9 10 13 8 6 9 10 10 10 7 6
-0 -0 -0 -1 -1 -1 -1 -1 -2 -1 -0 0 2 7 7 7 4 2 2 3 4 4 5 6 7 10 10 12 17 15 14 14 13 10 10 11 12 9 7 8 10 9 10 8 7
-0 -0 -1 -1 -1 -1 -0 1 5 6 4 7 8 9 7 4 2 4 3 3 4 6 10 8 11 13 11 10 11 12 14 14 12 9 11 12 11 10 8 8 9 10 10 10 7
-1 -1 -0 -1 -1 -1 0 5 6 6 8 6 6 6 4 3 7 5 2 7 8 11 9 11 13 10 9 10 11 11 13 14 12 10 11 11 12 9 8 8 8 9 9 10 9
-1 -0 -0 -0 -1 0 3 5 3 4 9 7 6 6 5 4 7 7 4 6 9 11 11 12 11 8 10 11 12 12 14 13 14 12 11 12 14 11 9 7 7 7 8 8 9
-1 -1 -0 -1 2 2 4 3 3 6 13 12 8 7 5 5 8 4 3 6 9 11 11 11 9 10 11 12 11 15 10 11 12 14 17 12 19 13 11 10 8 8 8 8 8
-0 -1 -1 -1 2 4 4 3 4 6 20 11 9 4 5 8 8 7 4 7 11 11 10 13 12 11 12 12 10 13 9 11 12 14 15 14 17 14 11 11 9 8 7 7 7
-0 -1 -0 1 1 2 3 3 5 15 20 13 9 9 9 8 9 7 7 5 7 10 10 10 9 10 10 9 9 10 12 12 13 14 19 15 16 15 13 11 9 7 7 7 7
-0 -0 0 0 4 1 3 6 14 19 14 14 12 10 10 11 10 9 10 11 13 15 15 12 12 10 9 12 11 11 13 18 20 20 19 14 16 15 11 8 8 8 7 6 7
-0 -0 0 1 0 2 4 11 18 16 17 12 12 10 12 11 11 10 11 12 10 12 14 16 19 12 9 11 13 13 13 18 23 21 19 16 18 14 9 7 7 7 7 7 7
-0 1 2 1 -0 3 8 15 16 14 14 13 12 13 13 12 12 12 12 12 10 10 15 17 16 11 10 9 10 13 16 11 16 16 19 17 14 12 9 9 8 9 8 8 8
3 3 4 0 1 4 11 13 14 12 10 11 17 13 16 13 14 13 14 11 12 9 10 12 16 12 11 9 9 12 10 16 16 21 22 17 17 16 12 10 10 10 9 8 8
3 7 4 1 2 8 14 13 13 11 10 13 15 17 15 13 13 14 14 12 10 10 9 11 13 14 11 13 13 13 14 14 14 16 20 20 16 12 10 9 8 9 9 9 9
5 10 4 2 12 10 12 12 10 11 10 12 13 14 14 13 14 14 14 13 10 9 12 11 13 17 14 12 9 11 13 13 17 18 16 17 16 11 12 12 12 13 12 12 12
9 8 3 4 13 12 10 11 11 11 11 12 12 12 13 13 15 13 12 10 9 9 11 9 15 21 16 13 11 13 12 12 12 14 17 19 17 11 10 9 9 12 13 12 12
8 11 8 7 10 10 12 13 13 9 12 12 12 11 13 13 12 13 13 10 8 8 7 7 13 15 17 15 14 15 13 12 13 17 16 16 15 11 9 9 8 8 7 10 12
9 10 9 13 11 10 11 12 13 13 11 11 12 12 12 14 13 13 12 11 9 7 8 9 15 14 13 13 12 13 13 13 14 14 16 14 14 11 9 8 8 7 7 8 8
10 10 9 10 10 10 10 13 12 13 12 12 13 11 12 13 12 13 11 11 11 10 10 9 14 13 15 13 12 14 13 12 12 13 13 13 13 9 8 8 8 8 8 9 9
7 7 8 9 10 11 11 12 11 11 11 10 11 12 12 12 11 10 10 10 10 10 11 12 13 15 19 15 14 17 14 13 12 11 11 14 11 9 9 8 8 8 7 8 8